星链-2021 (STARLINK-2021 )

导读 | 豆包AI

STARLINK-2021是美国太空探索技术公司星链星座的卫星,星链旨在打造全球卫星互联网系统。它于2021年2月4日发射升空,和同期星链卫星一同组网,补充了低轨通信卫星网络节点,为后续全球覆盖式卫星互联网服务提供支撑,推动了低轨巨型星座的建设进程。

基本信息
目录编号:
47604
目录名称:
STARLINK-2021
国际标识:
2021-009BJ
轨道中心:
EARTH
卫星名称:
星链-2021
卫星全名:
星链-2021 (STARLINK-2021 )
卫星状态:
在轨 (已飞行1864 天)
发射日期:
2021-02-04 UTC
国别 :
美国 (US)
星等 :
--
轨道信息
数据来源 国际轨道数据
星历时间: 2026-03-14T07:28:23+0800
13小时前
查看轨道信息
半长轴: 6748.579km
偏心率: 0.0006412
轨道倾角: 53.044°
近地点辐角 142.767°
升交点赤经 314.911°
平近点角 217.379°
近地点: 366.114km
远地点: 374.77km
周期: 91.956分钟
每日圈数: 15.65973
详细信息
固有亮度:
5
最大亮度:
2.5
卫星平台:
Starlink V1.0
覆盖范围:
全球
运营商:
太空探索技术公司
运营商所在国:
美国
制造商(研发单位):
太空探索技术公司
制造商所在国:
美国
使用方式:
暂无
卫星简介
星链(Starlink)计划是由太空探索技术公司(SpaceX)提出的一个巨型低轨卫星互联网星座项目,计划在2019年至2024年间在太空搭建由约1.2万颗卫星组成的“星链”网络,其中1584颗将部署在地球上空550千米处的近地轨道,并从2020年开始工作。该卫星仍在工作。
2D轨道图
3D轨道图
轨道高度分析图
轨道倾角分析图
轨道综合分析图
查看轨道综合分析图